This is the latest recevied weather packets stored in our database for station/object SQ7IQO. If no packets are shown the sender has not sent any weather packets the latest 10 day(s).
| Time | Temp. | Humidity | Pressure | Rain* | Wind** | Luminosity | Snow |
|---|---|---|---|---|---|---|---|
| 1788013482 | 21.67° C | 66% | 1015.6 hPa | 0 mm | 2.68 m/s, ° | - | - |
| 1788013422 | 21.67° C | 67% | 1015.6 hPa | 0 mm | 1.34 m/s, ° | - | - |
| 1788013362 | 21.67° C | 66% | 1015.6 hPa | 0 mm | 1.79 m/s, ° | - | - |
| 1788013302 | 21.67° C | 65% | 1010.2 hPa | 0 mm | 2.24 m/s, ° | - | - |
| 1788013242 | 21.67° C | 65% | 1015.6 hPa | 0 mm | 2.24 m/s, ° | - | - |
| 1788013182 | 22.22° C | 65% | 1015.5 hPa | 0 mm | 2.68 m/s, ° | - | - |
| 1788013121 | 22.22° C | 65% | 1015.6 hPa | 0 mm | 2.24 m/s, ° | - | - |
| 1788013062 | 22.78° C | 63% | 1015.5 hPa | 0 mm | 1.79 m/s, ° | - | - |
| 1788013001 | 22.78° C | 61% | 1021.2 hPa | 0 mm | 1.79 m/s, ° | - | - |
| 1788012941 | 22.78° C | 60% | 1015.5 hPa | 0 mm | 2.68 m/s, ° | - | - |
| 1788012881 | 22.78° C | 61% | 1015.5 hPa | 0 mm | 1.79 m/s, ° | - | - |
| 1788012821 | 22.78° C | 61% | 1015.5 hPa | 0 mm | 2.24 m/s, ° | - | - |
| 1788012761 | 22.78° C | 61% | 1015.4 hPa | 0 mm | 1.79 m/s, ° | - | - |
| 1788012701 | 22.22° C | 65% | 1015.8 hPa | 0 mm | 1.79 m/s, ° | - | - |
| 1788012642 | 21.67° C | 65% | 1015.5 hPa | 0 mm | 1.79 m/s, ° | - | - |
| 1788012582 | 21.67° C | 66% | 1015.4 hPa | 0 mm | 1.79 m/s, ° | - | - |
| 1788012521 | 21.67° C | 66% | 1157.5 hPa | 0 mm | 1.34 m/s, ° | - | - |
| 1788012462 | 21.67° C | 69% | 1015.5 hPa | 0 mm | 1.79 m/s, ° | - | - |
| 1788012401 | 21.67° C | 68% | 1015.5 hPa | 0 mm | 1.79 m/s, ° | - | - |
| 1788012341 | 21.67° C | 70% | 1015.4 hPa | 0 mm | 1.79 m/s, ° | - | - |
| 1788012282 | 21.67° C | 70% | 1015.4 hPa | 0 mm | 1.34 m/s, ° | - | - |
| 1788012222 | 21.67° C | 71% | 1015.5 hPa | 0 mm | 1.34 m/s, ° | - | - |
| 1788012161 | 21.67° C | 70% | 3451 hPa | 0 mm | 0.89 m/s, ° | - | - |
| 1788012102 | 21.67° C | 70% | 1015.4 hPa | 0 mm | 0.89 m/s, ° | - | - |
| 1788012041 | 21.67° C | 70% | 1017 hPa | 0 mm | 1.79 m/s, ° | - | - |
* Rain latest hour (hover to see other rain measurements)
** Current wind speed in m/s (hover to see current wind gust speed)